Погода в Красочном

Россия / Ставропольский край     45°49′24″N   42°31′33″E
темп.,
°C
ветер,
м/с
пор.,
м/с
влажн.,
%
обл.,
%
осадки,
мм/ч
давл.,
гПа
погр.,
м
15 апреля, чт
чт1500:00+8з3494100 0.0 101882
03:00+7з229325 0.0 101820
06:00+6з339313 0.0 101844
09:00+13з33703 0.0 1018463
12:00+17зсз45495 0.0 10171402
15:00+18сз4548100 0.0 10171647
18:00+16сз2263100 0.0 101720
21:00+12з006952 0.0 101810
16 апреля, пт
пт1600:00+11зюз227622 0.0 101815
03:00+10ююз228291 0.0 101810
06:00+10юз1181100 0.0 101910
09:00+15всв1166100 0.0 1019360
12:00+19вюв345128 0.0 10181452
15:00+21юв454160 0.0 10162247
18:00+12сз91595100 1.4 1019602
21:00+11з0196100 12.8 102019
17 апреля, сб
сб1700:00+10з0198100 1.4 102014
03:00+10з3597100 2.1 1020269
06:00+10зсз4998100 11.4 1021391
09:00+11з3592100 16.1 1022485
12:00+13зсз3376100 0.8 1022860
15:00+14зсз4466100 1.1 10221065
18:00+12з3474100 0.0 1023156
21:00+10зюз2276100 0.0 102329
18 апреля, вс
вс1800:00+9зсз117797 0.0 102211
03:00+9св2275100 0.0 102144
06:00+9в3580100 0.0 1021133
09:00+12вюв5773100 0.0 1019493
12:00+11в4889100 0.8 1018457
15:00+11св1197100 10.5 1018116
18:00+12в4692100 3.8 1017285
21:00+11ссв2398100 4.9 1018109
19 апреля, пн
пн1900:00+11юв4796100 1.3 1017195
03:00+10ююв2295100 1.3 101628
06:00+11сз129592 0.0 101650
09:00+13зсз2389100 0.0 1016417
12:00+15зсз4583100 0.0 1016656
15:00+13ссв2293100 1.4 1015157
18:00+13св3392100 0.0 1014233
21:00+12св4797100 0.3 1013219